Regional Weather Roundup
Issued by NWS

Home | Current Version | Previous Version | Graphics & Text | Print | Product List | Glossary On
Versions: 1 2 3 4 5 6 7 8 9 10 11 12 13 14 15 16 17 18 19 20 21 22 23 24 25 26 27 28 29 30 31 32 33 34 35 36 37 38 39 40 41 42 43 44 45 46 47 48 49 50
000
ASUS43 KBIS 230420
RWRND

NORTH DAKOTA REGIONAL WEATHER ROUNDUP
NATIONAL WEATHER SERVICE BISMARCK ND
1100 PM CDT FRI MAY 22 2015

NOTE: "FAIR" INDICATES FEW OR NO CLOUDS BELOW 12,000 FEET WITH NO
SIGNIFICANT WEATHER AND/OR OBSTRUCTIONS TO VISIBILITY.


NDZ001>003-009>011-017-230500-
NORTHWEST NORTH DAKOTA

CITY           SKY/WX    TMP DP  RH WIND       PRES   REMARKS
WILLISTON      PTCLDY    62  37  39 SE5       30.06R
MINOT          MOCLDY    60  40  47 SE5       30.08R
MINOT AFB      MOCLDY    57  37  47 S3        30.07R
$$

NDZ018>021-031>035-040>046-230500-
SOUTHWEST NORTH DAKOTA

CITY           SKY/WX    TMP DP  RH WIND       PRES   REMARKS
BISMARCK       PTCLDY    62  39  42 S9        30.11R
DICKINSON      MOCLDY    50  34  54 SE9       30.08R
GARRISON         N/A     59  40  49 SE3       30.09R
HETTINGER ARPT MOCLDY    53  37  54 SE14      30.11R
$$

NDZ004>008-012>016-024-026-027-054-230500-
NORTHEAST NORTH DAKOTA

CITY           SKY/WX    TMP DP  RH WIND       PRES   REMARKS
GRAND FORKS    CLEAR     56  43  61 S6        30.12R
GRND FRKS AFB  CLEAR     57  42  56 SW8       30.12S
DEVILS LAKE    CLEAR     59  43  55 SE7       30.11S
$$

NDZ022-023-025-028>030-036>039-047>053-230500-
SOUTHEAST NORTH DAKOTA

CITY           SKY/WX    TMP DP  RH WIND       PRES   REMARKS
FARGO          CLEAR     64  41  42 SE9       30.13S
JAMESTOWN      PTCLDY    60  38  43 SE9       30.12R
$$



USA.gov is the U.S. government's official web portal to all federal, state and local government web resources and services.